Weather Roundup
Issued by NWS Chicago, IL

Home | Current Version | Previous Version | Text Only | Print | Product List | Glossary Off
Versions: 1 2 3 4 5 6 7 8 9 10 11 12 13 14 15 16 17 18 19 20 21 22 23 24 25 26 27 28 29 30 31 32 33 34 35 36 37 38 39 40 41 42 43 44 45 46 47 48 49 50

000
NZUS59 KLOT 070312
HRRLOT

CHICAGO AREA WEATHER ROUNDUP
NATIONAL WEATHER SERVICE CHICAGO/ROMEOVILLE IL
900 PM CST TUE DEC 06 2016

NOTE: "FAIR" INDICATES FEW OR NO CLOUDS BELOW 12,000 FEET WITH NO
SIGNIFICANT WEATHER AND/OR OBSTRUCTIONS TO VISIBILITY.

* THESE STATIONS ARE NOT UNDER NWS QUALITY CONTROL. THEY ALSO MAY NOT
  REPORT WEATHER SUCH AS PRECIPITATION OR FOG.

ILZ005-006-012>014-019>023-070400-
NORTHEAST ILLINOIS

CITY           SKY/WX    TMP DP  RH WIND       PRES   REMARKS
OHARE          PTCLDY    28  21  75 W13       29.94R WCI  17
MIDWAY         PTCLDY    30  19  63 W18       29.96R WCI  18
AURORA         CLEAR     26  20  77 W13       29.97R WCI  15
LANSING*       CLEAR     30  25  82 W16G28    29.97R WCI  18
JOLIET*        CLEAR     31  23  72 W10G24    29.99R WCI  22
WAUKEGAN       CLOUDY    28  20  71 W8G20     29.90R WCI  20
DUPAGE AIRPORT CLEAR     27  19  72 W14       29.95R WCI  16
WHEELING       CLOUDY    28  19  69 W13G22    29.95R WCI  17
KANKAKEE*      CLEAR     31  26  83 W14       30.00R WCI  20
MORRIS*        CLEAR     29  23  78 W9        29.98S WCI  20
LEWIS AIRPORT* CLEAR     27  25  92 W10       29.98R WCI  18
NORTHERLY ISL    N/A     30  20  66 W10         N/A  WCI  21
$$

WIZ051-052-058>065-066-070>072-070400-
SOUTHEAST WISCONSIN

CITY           SKY/WX    TMP DP  RH WIND       PRES   REMARKS
MILWAUKEE      CLOUDY    29  17  61 W15G28    29.88R WCI  18
KENOSHA*       CLOUDY    28  19  69 W17G28    29.90R WCI  16
RACINE*        CLOUDY    28  17  63 W15G25    29.90R WCI  16
BURLINGTON     CLOUDY    27  20  73 W12G22    29.90R WCI  17
WAUKESHA       CLOUDY    27  18  69 W15G24    29.88R WCI  15
WEST BEND      CLOUDY    27  19  74 W13G20    29.84S WCI  16
$$

INZ001>003-010>013-019-020-070400-
NORTHWEST INDIANA

CITY           SKY/WX    TMP DP  RH WIND       PRES   REMARKS
GARY*          CLEAR     32  25  74 W24       29.96R WCI  19
MICHIGAN CITY* NOT AVBL
RENSSELAER*    NOT AVBL
VALPARAISO     CLEAR     31  22  69 W21G30    29.95R WCI  18
$$

LMZ740>746-070400-
SOUTHERN LAKE MICHIGAN

STATION/POSITION TIME  SKY/WX   TEMP WIND        PRES    VSBY
                                AIR  DIR/SP/G
                 (UTC)          (F)  (DEG/KT/KT) (MB)    (MI)
HARRISON CRIB    NOT AVBL
BURNHAM HARBOR   NOT AVBL
CALUMET HARBOR   NOT AVBL
BURNS HARBOR     0219            34  260/ 28     1013.5R
MICHIGAN CITY    NOT AVBL
$$

ABBREVIATIONS USED IN REMARKS
   TC - TEMPERATURE IN CELSIUS
  WCI - WIND CHILL INDEX
   HX - HEAT INDEX
  VSB - VISIBILITY
$$




USA.gov is the U.S. government's official web portal to all federal, state and local government web resources and services.